[[{"header":{"parameterUnit":"m.s-1","parameterCategory":1,"la1":30.2991,"la2":30.254,"lo1":-89.0895,"lo2":-89.0444,"dy":0.0017,"dx":0.0017,"nx":28,"ny":28,"refTime":"2025-08-24T21:00:00:Z","depth":0,"parameterNumber":2,"parameterNumberName":"U-component_of_WINDS"},"data":[0,0,0,0,0,0,0,0,0,0,0,0,0,0,0,0,0,0,0,0,0,0,0,0,0,0,0,0,0,0,0,0,0,0,0,0,0,0,0,0,0,0,0,0,0,0,0,0,0,0,0,0,0,0,0,0,0,0,-0.5809,-0.5809,0,-0.5801,-0.5801,-0.5801,-0.5785,-0.5785,-0.5785,-0.5784,-0.5777,-0.5777,-0.5777,0,0,0,0,0,0,0,0,0,0,0,0,0,-0.5812,-0.5812,-0.5809,-0.5809,-0.5809,-0.5801,-0.5801,-0.5801,-0.5785,-0.5785,-0.5785,-0.5784,-0.5776,-0.5777,-0.5777,0,0,0,0,0,0,0,0,0,0,0,0,0,-0.5808,-0.5812,-0.5809,-0.5801,-0.58,-0.5801,-0.5801,-0.5801,-0.5785,-0.5785,-0.5785,-0.5784,-0.5776,-0.5777,-0.5777,-0.5786,0,0,-0.5777,-0.5777,0,0,0,0,0,0,0,0,-0.5808,-0.5808,-0.5802,-0.5801,-0.58,-0.5794,-0.5799,-0.5796,-0.5786,-0.5791,-0.5784,-0.5784,-0.5783,-0.5782,-0.5782,-0.5786,-0.5786,-0.5777,-0.5777,-0.5777,-0.5777,0,0,0,0,0,0,0,-0.5809,-0.5808,-0.5806,-0.5802,-0.5801,-0.5797,-0.5796,-0.5798,-0.5789,-0.579,-0.5789,-0.5788,-0.5782,-0.5782,-0.5781,-0.5786,-0.5777,-0.5777,-0.5777,-0.5777,-0.5797,-0.5798,0,0,0,0,0,0,-0.581,-0.5809,-0.5806,-0.5806,-0.5803,-0.5797,-0.5796,-0.5796,-0.5789,-0.5788,-0.5789,-0.5788,-0.5782,-0.5781,-0.5781,-0.5792,-0.5777,-0.5777,-0.5777,-0.5797,-0.5797,-0.5798,0,0,0,0,0,0,-0.581,-0.581,-0.5807,-0.5807,-0.5806,-0.5798,-0.5798,-0.5796,-0.5796,-0.5788,-0.5787,-0.579,-0.5781,-0.5781,-0.5785,-0.5791,-0.5777,-0.5777,-0.5796,-0.5797,-0.5797,-0.5814,0,0,0,0,0,0,-0.581,-0.581,-0.5814,-0.5807,-0.5806,-0.5811,-0.5798,-0.5797,-0.5796,-0.5795,-0.5789,-0.5787,-0.5781,-0.5785,-0.5785,-0.5791,-0.5777,-0.5795,-0.5796,-0.5797,-0.5813,-0.5815,-0.5817,0,0,0,0,0,-0.581,-0.5819,-0.5814,-0.5814,-0.5811,-0.5811,-0.5811,-0.5803,-0.5797,-0.58,-0.5795,-0.5788,-0.5791,-0.5786,-0.5786,-0.5792,-0.5795,-0.5796,-0.5797,-0.5812,-0.5815,-0.5817,0,0,0,0,0,0,-0.5827,-0.5818,-0.5813,-0.5819,-0.5816,-0.5809,-0.5813,-0.5806,-0.5805,-0.5804,-0.5794,-0.5793,-0.5799,-0.5796,-0.579,-0.5801,-0.5792,-0.5793,-0.5803,-0.5805,-0.5807,-0.5808,-0.5778,0,0,0,0,0,-0.5832,-0.5833,-0.5825,-0.5832,-0.583,-0.5822,-0.5822,-0.5816,-0.5813,-0.5811,-0.5807,-0.5804,-0.5804,-0.5804,-0.5804,-0.5812,-0.581,-0.5816,-0.5818,-0.582,-0.5821,-0.5825,-0.5827,-0.5801,-0.5801,-0.5801,0,0,-0.5841,-0.5836,-0.5838,-0.5835,-0.5832,-0.5833,-0.5821,-0.5823,-0.5825,-0.5812,-0.5816,-0.5812,-0.5808,-0.5814,-0.5816,-0.5811,-0.5828,-0.5821,-0.5823,-0.5823,-0.5826,-0.5829,-0.5831,-0.5802,-0.5802,-0.5802,0,0,-0.5859,-0.5856,-0.5861,-0.5858,-0.5853,-0.5847,-0.5848,-0.5842,-0.5839,-0.5842,-0.5832,-0.5833,-0.5834,-0.5831,-0.583,-0.5846,-0.5839,-0.5846,-0.5858,-0.5861,-0.5863,-0.5865,-0.5871,-0.5873,-0.5847,-0.5847,-0.5847,0,-0.5872,-0.5874,-0.5864,-0.5867,-0.5866,-0.5854,-0.5859,-0.5856,-0.5852,-0.5851,-0.5846,-0.5846,-0.5842,-0.5848,-0.5851,-0.5851,-0.5852,-0.5847,-0.5864,-0.5866,-0.5867,-0.5872,-0.5875,-0.5848,-0.5848,-0.5848,-0.5848,0,-0.5889,-0.589,-0.5895,-0.5891,-0.589,-0.5894,-0.5885,-0.5885,-0.5879,-0.5874,-0.5877,-0.5872,-0.5871,-0.5871,-0.5865,-0.5875,-0.5873,-0.5866,-0.5856,-0.5871,-0.5876,-0.5878,-0.585,-0.5849,-0.5849,-0.5849,0,0,-0.5919,-0.5908,-0.591,-0.5908,-0.5901,-0.5902,-0.5905,-0.5903,-0.5904,-0.5901,-0.5903,-0.5903,-0.5897,-0.5895,-0.5889,-0.5892,-0.5905,-0.5884,-0.5884,-0.5889,-0.5915,-0.5921,-0.5923,-0.5899,-0.59,-0.59,-0.5915,0,-0.5936,-0.594,-0.5931,-0.5938,-0.5939,-0.5927,-0.593,-0.5926,-0.5921,-0.5921,-0.5915,-0.5916,-0.5907,-0.5906,-0.5908,-0.5903,-0.591,-0.5901,-0.5902,-0.5902,-0.5904,-0.5926,-0.5932,-0.5947,-0.5917,-0.5918,-0.5918,0,-0.5956,-0.5954,-0.5961,-0.5953,-0.5953,-0.5956,-0.5953,-0.5953,-0.5948,-0.5944,-0.5942,-0.5934,-0.5937,-0.5927,-0.593,-0.5924,-0.5924,-0.5921,-0.5921,-0.5922,-0.5911,-0.5927,-0.5951,-0.5954,-0.5921,-0.5921,-0.592,0,-0.5978,-0.5976,-0.598,-0.5978,-0.5969,-0.5971,-0.5968,-0.5962,-0.5961,-0.5959,-0.5958,-0.5956,-0.5955,-0.5953,-0.5945,-0.5939,-0.5949,-0.5938,-0.5946,-0.5946,-0.5949,-0.5949,-0.5974,-0.5948,-0.5948,-0.5948,-0.5948,0,-0.5998,-0.6003,-0.5989,-0.5992,-0.5996,-0.5986,-0.5991,-0.5986,-0.5981,-0.5982,-0.5971,-0.5973,-0.5961,-0.5961,-0.5955,-0.5958,-0.5957,-0.5954,-0.5953,-0.5956,-0.5956,-0.5956,-0.5955,-0.5948,-0.5948,-0.5948,-0.5948,0,-0.6023,-0.6014,-0.6017,-0.6008,-0.6006,-0.601,-0.6002,-0.6004,-0.5998,-0.5999,-0.5999,-0.5989,-0.5989,-0.598,-0.5977,-0.5973,-0.5979,-0.5975,-0.598,-0.5979,-0.5987,-0.5987,-0.6013,-0.6016,-0.5988,-0.5988,-0.5988,0,-0.6037,-0.604,-0.6031,-0.6031,-0.6028,-0.6028,-0.6026,-0.6016,-0.6015,-0.6009,-0.6012,-0.601,-0.6008,-0.6008,-0.6,-0.5998,-0.5994,-0.6004,-0.5994,-0.5997,-0.5995,-0.5995,-0.5995,-0.6006,-0.6006,-0.6007,-0.6007,0,-0.6062,-0.6057,-0.6056,-0.6053,-0.6052,-0.6049,-0.6046,-0.6046,-0.6034,-0.6034,-0.6033,-0.6031,-0.6028,-0.6027,-0.6023,-0.6019,-0.6011,-0.601,-0.6011,-0.6015,-0.6018,-0.6017,-0.5987,-0.601,-0.6009,-0.6009,-0.6009,-0.6009,-0.6082,-0.6085,-0.6078,-0.6077,-0.6073,-0.607,-0.6071,-0.6064,-0.6063,-0.606,-0.6053,-0.6053,-0.6048,-0.6042,-0.6039,-0.6038,-0.6033,-0.6036,-0.6036,-0.6037,-0.6039,-0.6017,-0.6037,-0.6037,-0.6037,-0.6037,-0.6037,0,-0.6108,-0.6103,-0.6102,-0.6097,-0.6096,-0.6087,-0.6083,-0.6082,-0.6082,-0.6078,-0.6076,-0.6074,-0.6072,-0.6064,-0.6062,-0.6063,-0.6059,-0.6063,-0.6063,-0.6062,-0.6043,-0.6042,-0.6066,-0.6066,-0.6066,-0.6066,-0.6066,-0.6066,-0.6121,-0.6124,-0.6118,-0.6119,-0.6114,-0.6114,-0.6112,-0.6109,-0.6105,-0.6103,-0.6102,-0.6096,-0.609,-0.6087,-0.6084,-0.6082,-0.6082,-0.6087,-0.6083,-0.6066,-0.6063,-0.6061,-0.606,-0.6087,-0.6087,-0.6102,-0.6102,-0.6102]},{"header":{"parameterUnit":"m.s-1","parameterCategory":1,"la1":30.2991,"la2":30.254,"lo1":-89.0895,"lo2":-89.0444,"dy":0.0017,"dx":0.0017,"nx":28,"ny":28,"refTime":"2025-08-24T21:00:00:Z","depth":0,"parameterNumber":3,"parameterNumberName":"V-component_of_WINDS"},"data":[0,0,0,0,0,0,0,0,0,0,0,0,0,0,0,0,0,0,0,0,0,0,0,0,0,0,0,0,0,0,0,0,0,0,0,0,0,0,0,0,0,0,0,0,0,0,0,0,0,0,0,0,0,0,0,0,0,0,0.6579,0.6578,0,0.6558,0.6558,0.6557,0.6507,0.6506,0.6505,0.6504,0.6484,0.6484,0.6484,0,0,0,0,0,0,0,0,0,0,0,0,0,0.6575,0.6576,0.6579,0.6578,0.6578,0.6558,0.6558,0.6557,0.6507,0.6506,0.6505,0.6504,0.6483,0.6484,0.6485,0,0,0,0,0,0,0,0,0,0,0,0,0,0.6568,0.6576,0.6579,0.6551,0.6548,0.6558,0.6558,0.6557,0.6508,0.6506,0.6504,0.6503,0.6483,0.6484,0.6485,0.652,0,0,0.6487,0.6487,0,0,0,0,0,0,0,0,0.6568,0.6568,0.6555,0.6553,0.655,0.6533,0.6549,0.6545,0.6508,0.6523,0.6504,0.6502,0.6502,0.6501,0.65,0.6519,0.6518,0.6487,0.6487,0.6487,0.6488,0,0,0,0,0,0,0,0.6569,0.6569,0.657,0.6555,0.6552,0.6539,0.6536,0.6548,0.6521,0.6522,0.6518,0.6516,0.65,0.65,0.6499,0.6518,0.6487,0.6487,0.6488,0.6488,0.6564,0.6566,0,0,0,0,0,0,0.6573,0.6569,0.6571,0.657,0.6555,0.6541,0.6537,0.654,0.6521,0.6517,0.6517,0.6514,0.6499,0.6499,0.6498,0.6538,0.6487,0.6488,0.6488,0.6563,0.6565,0.6567,0,0,0,0,0,0,0.6573,0.6574,0.6572,0.6569,0.6567,0.6542,0.6546,0.6541,0.654,0.6518,0.6513,0.6522,0.6498,0.6497,0.6515,0.6537,0.6488,0.6489,0.6561,0.6563,0.6566,0.6618,0,0,0,0,0,0,0.6574,0.6574,0.6588,0.6569,0.6568,0.6589,0.6547,0.6541,0.6542,0.6537,0.6521,0.6517,0.6497,0.6514,0.6516,0.6537,0.6489,0.6559,0.6562,0.6565,0.6615,0.6622,0.6629,0,0,0,0,0,0.6574,0.6604,0.6589,0.6589,0.6584,0.659,0.6589,0.6565,0.6544,0.6557,0.6542,0.6518,0.6534,0.6516,0.6518,0.6539,0.6557,0.6561,0.6565,0.6611,0.6621,0.6629,0,0,0,0,0,0,0.6626,0.6601,0.6584,0.6609,0.6602,0.6582,0.6597,0.6576,0.6575,0.6571,0.6541,0.6538,0.6559,0.6551,0.6532,0.6572,0.6542,0.6546,0.6577,0.6586,0.6593,0.6594,0.649,0,0,0,0,0,0.664,0.6647,0.6625,0.6649,0.6647,0.6623,0.6625,0.6607,0.6598,0.6595,0.6582,0.6575,0.6579,0.6582,0.6584,0.6613,0.6609,0.6629,0.6636,0.6642,0.6646,0.666,0.6668,0.6579,0.6579,0.6579,0,0,0.667,0.6657,0.6663,0.6659,0.6652,0.666,0.6621,0.6631,0.6636,0.6597,0.6612,0.6602,0.6593,0.6616,0.6626,0.661,0.6669,0.6647,0.6652,0.6652,0.6664,0.6673,0.6681,0.6581,0.6581,0.658,0,0,0.6728,0.6719,0.6738,0.6731,0.672,0.6704,0.6709,0.6692,0.6683,0.6698,0.6668,0.6675,0.6682,0.6676,0.6674,0.6729,0.6706,0.6731,0.6768,0.6782,0.679,0.6796,0.6815,0.6822,0.6735,0.6735,0.6735,0,0.6766,0.6777,0.675,0.6762,0.6761,0.6725,0.6744,0.6739,0.6729,0.6729,0.6712,0.6719,0.671,0.6731,0.6745,0.6745,0.6749,0.6732,0.6791,0.6796,0.6802,0.682,0.6827,0.6738,0.6738,0.6737,0.6737,0,0.6824,0.6832,0.6848,0.6839,0.684,0.6856,0.6831,0.6835,0.6817,0.6803,0.6818,0.6806,0.6805,0.6809,0.6792,0.6827,0.6818,0.6796,0.6764,0.6814,0.683,0.6837,0.6742,0.6741,0.674,0.674,0,0,0.6914,0.689,0.6896,0.6892,0.6877,0.6882,0.6896,0.6894,0.6898,0.6893,0.6903,0.691,0.6889,0.6887,0.6869,0.6881,0.6925,0.6858,0.6857,0.687,0.6963,0.6979,0.6987,0.691,0.6911,0.6912,0.6963,0,0.6968,0.6989,0.6966,0.6992,0.6998,0.6964,0.6976,0.6968,0.6956,0.6959,0.6945,0.695,0.6923,0.6921,0.6932,0.6917,0.6943,0.6913,0.6919,0.6919,0.6922,0.6996,0.7013,0.7062,0.697,0.6971,0.6971,0,0.7034,0.7031,0.7058,0.704,0.7042,0.7053,0.7049,0.7054,0.7044,0.7034,0.7031,0.7009,0.7021,0.6991,0.7006,0.6987,0.6988,0.6981,0.6982,0.6981,0.6948,0.6996,0.7077,0.7084,0.6981,0.6981,0.698,0,0.7096,0.7099,0.7115,0.7112,0.7092,0.7101,0.7093,0.7082,0.7082,0.7079,0.7079,0.7078,0.7077,0.7076,0.7054,0.7034,0.7073,0.7041,0.7064,0.7065,0.7073,0.7073,0.7154,0.7075,0.7075,0.7075,0.7075,0,0.7158,0.7175,0.7142,0.7152,0.7171,0.7143,0.7163,0.7152,0.7142,0.7149,0.712,0.7127,0.7098,0.7102,0.7085,0.71,0.71,0.7092,0.7087,0.7094,0.7095,0.7094,0.709,0.7077,0.7076,0.7076,0.7076,0,0.723,0.7208,0.7224,0.7204,0.7199,0.7214,0.7197,0.7205,0.719,0.72,0.72,0.7177,0.718,0.7158,0.7158,0.7146,0.717,0.716,0.7173,0.717,0.7194,0.7192,0.7277,0.7286,0.7202,0.7203,0.7203,0,0.7271,0.7283,0.7265,0.7267,0.7261,0.7265,0.7265,0.7239,0.724,0.723,0.7239,0.724,0.724,0.7247,0.723,0.7229,0.7218,0.7248,0.7218,0.7224,0.7218,0.7217,0.7218,0.7254,0.7255,0.7256,0.7257,0,0.7345,0.7333,0.7334,0.7332,0.7332,0.7329,0.7324,0.7327,0.7299,0.7302,0.7305,0.7304,0.7303,0.7304,0.73,0.7292,0.727,0.7267,0.7272,0.7279,0.7286,0.7282,0.7189,0.7265,0.7264,0.7263,0.7263,0.7263,0.7402,0.7411,0.7399,0.7401,0.7394,0.739,0.7397,0.7382,0.7384,0.7381,0.7366,0.7371,0.7361,0.7353,0.7347,0.7351,0.7337,0.7345,0.7346,0.7349,0.7353,0.7286,0.7351,0.735,0.735,0.735,0.735,0,0.7474,0.7464,0.7467,0.746,0.7461,0.744,0.7433,0.7435,0.744,0.7433,0.7432,0.7435,0.7436,0.7419,0.7418,0.7425,0.7414,0.7425,0.7424,0.7422,0.7366,0.7361,0.7433,0.7433,0.7433,0.7433,0.7433,0.7433,0.7511,0.7526,0.7513,0.7524,0.7514,0.7519,0.7517,0.7513,0.7506,0.7511,0.7511,0.75,0.7488,0.7486,0.7486,0.7481,0.7481,0.7496,0.7487,0.7435,0.7426,0.7419,0.7414,0.7496,0.7496,0.7543,0.7543,0.7544]}]]